STARLINK-35327

Last updated on Fri Dec 12 2025 00:02:05 GMT+0000 (Coordinated Universal Time)

1 66439U 25259T 25345.58335648 .00086530 00000+0 20613-2 0 9997 2 66439 42.9997 54.3541 0001198 276.9668 259.5079 15.40611391 6098
UTC large
Height (km)
Speed (km/s)
/
Latitude / Longitude
Inclination (degrees)
Orbital Period (minutes)
Azimuth
Elevation
Range (km)
Doppler Factor

Next 0 passes for location: London (51.5072 / 0.1276)

Sorry there are no passes over London.